This is the latest recevied weather packets stored in our database for station/object DM4SB-13. If no packets are shown the sender has not sent any weather packets the latest 10 day(s).
| Time | Temp. | Humidity | Pressure | Rain* | Wind** | Luminosity | Snow |
|---|---|---|---|---|---|---|---|
| 1777153217 | 13.89° C | 42% | 1020.1 hPa | - | - | - | - |
| 1777152618 | 14.44° C | 41% | 1019.9 hPa | - | - | - | - |
| 1777152017 | 14.44° C | 40% | 1020 hPa | - | - | - | - |
| 1777151418 | 15° C | 40% | 1019.9 hPa | - | - | - | - |
| 1777150818 | 15° C | 39% | 1019.6 hPa | - | - | - | - |
| 1777150218 | 15.56° C | 38% | 1019.6 hPa | - | - | - | - |
| 1777149618 | 15.56° C | 37% | 1019.4 hPa | - | - | - | - |
| 1777149017 | 16.11° C | 37% | 1019.3 hPa | - | - | - | - |
| 1777148418 | 16.11° C | 36% | 1019.3 hPa | - | - | - | - |
| 1777147817 | 16.67° C | 35% | 1019.1 hPa | - | - | - | - |
| 1777147218 | 16.67° C | 34% | 1018.9 hPa | - | - | - | - |
| 1777146618 | 17.22° C | 33% | 1018.8 hPa | - | - | - | - |
| 1777146018 | 17.22° C | 33% | 1018.6 hPa | - | - | - | - |
| 1777145418 | 17.78° C | 32% | 1018.3 hPa | - | - | - | - |
| 1777144817 | 17.78° C | 32% | 1018.2 hPa | - | - | - | - |
| 1777144218 | 18.33° C | 31% | 1018 hPa | - | - | - | - |
| 1777143618 | 18.89° C | 30% | 1017.9 hPa | - | - | - | - |
| 1777143017 | 18.89° C | 29% | 1017.6 hPa | - | - | - | - |
| 1777142418 | 18.89° C | 29% | 1017.4 hPa | - | - | - | - |
| 1777141818 | 19.44° C | 28% | 1017.1 hPa | - | - | - | - |
| 1777141217 | 19.44° C | 28% | 1016.9 hPa | - | - | - | - |
| 1777140618 | 20° C | 27% | 1016.6 hPa | - | - | - | - |
| 1777140018 | 20° C | 27% | 1016.5 hPa | - | - | - | - |
| 1777139418 | 20.56° C | 26% | 1016.5 hPa | - | - | - | - |
| 1777138817 | 20.56° C | 25% | 1016.5 hPa | - | - | - | - |
* Rain since midnight (hover to see other rain measurements)
** Current wind speed in m/s (hover to see current wind gust speed)